Regional Weather Roundup
Issued by NWS

Home | Current Version | Previous Version | Text Only | Print | Product List | Glossary Off
Versions: 1 2 3 4 5 6 7 8 9 10 11 12 13 14 15 16 17 18 19 20 21 22 23 24 25 26 27 28 29 30 31 32 33 34 35 36 37 38 39 40 41 42 43 44 45 46 47 48 49 50

000
ASUS45 KBOU 011307
RWRCO

WEATHER ROUNDUP FOR COLORADO
NATIONAL WEATHER SERVICE DENVER/BOULDER CO
700 AM MDT FRI AUG 01 2014

NOTE: "FAIR" INDICATES FEW OR NO CLOUDS BELOW 12000 FEET WITH NO
SIGNIFICANT WEATHER AND/OR OBSTRUCTIONS TO VISIBILITY.

COZ001>005-013-030-031-011400-
...NORTHWEST COLORADO...

CITY           SKY/WX    TMP DP  RH WIND       PRES   REMARKS
CRAIG          MOCLDY    53  50  89 E6        30.27R
HAYDEN         MOCLDY    55  43  62 E12       30.28S
MEEKER         CLOUDY    56  49  77 CALM      30.29R
MOUNT WERNER   NOT AVBL
STEAMBOAT SPGS MOCLDY    50  46  87 CALM      30.31S
WALDEN         CLEAR     41  36  81 CALM      30.41R
$$

COZ006>008-011-011400-
...WEST CENTRAL VALLEYS...

CITY           SKY/WX    TMP DP  RH WIND       PRES   REMARKS
GRAND JUNCTION MOCLDY    64  54  69 E3        30.19R
MONTROSE       MOCLDY    62  56  80 E3        30.27R
EAGLE          MOCLDY    54  52  94 CALM      30.34S
RIFLE          MOCLDY    62  53  72 W3        30.23R
DELTA          MOCLDY    66  54  66 CALM      30.23R
NUCLA          CLOUDY    63  54  72 CALM      30.31R
$$

COZ017>023-064>068-011400-
...SOUTHWEST COLORADO...

CITY           SKY/WX    TMP DP  RH WIND       PRES   REMARKS
DURANGO        CLOUDY    59  51  75 CALM      30.33R
CORTEZ         PTCLDY    59  52  77 NE5       30.26R
PAGOSA SPRINGS CLOUDY    53  53  98 NE5       30.39R
TELLURIDE      NOT AVBL
WOLF CREEK PAS NOT AVBL
$$

COZ009-010-012-014-032>034-037-058>063-011400-
...CENTRAL COLORADO...

CITY           SKY/WX    TMP DP  RH WIND       PRES   REMARKS
ASPEN          LGT RAIN  54  50  86 SE12      30.37F
BUENA VISTA    CLOUDY    52  50  92 CALM      30.43R
COPPER MTN     MOCLDY    46  37  71 S12       30.63S
BERTHOUD PASS  MOCLDY    36  36 100 SE6       30.68R
COTTONWOOD PAS CLOUDY    50  46  87 CALM      30.53R FOG
GUNNISON       CLOUDY    52  46  82 N3        30.42R
KREMMLING      MOCLDY    50  45  81 CALM      30.40R
LEADVILLE      CLOUDY    46  45  96 CALM        N/A
MONARCH PASS   MOCLDY    41  39  93 CALM      30.73S
SALIDA         CLOUDY    55  52  91 SW3       30.48R
SUNLIGHT       CLOUDY    50  45  81 CALM      30.56R
WILKERSON PASS CLOUDY    37  37 100 S8        30.63R
$$

COZ069>075-011400-
...SAN LUIS VALLEY/SANGRE DE CRISTO MOUNTAINS...

CITY           SKY/WX    TMP DP  RH WIND       PRES   REMARKS
ALAMOSA        PTCLDY    52  50  93 SE3       30.38S
LA VETA PASS   FOG       46  45  93 NE5       30.54R VSB<1/4
SAGUACHE       CLOUDY    52  50  93 NW5       30.41R
$$

COZ035-036-038>040-011400-
...NORTHERN COLORADO FRONT RANGE...

CITY           SKY/WX    TMP DP  RH WIND       PRES   REMARKS
DENVER INTL AP PTSUNNY   59  54  83 SW6       30.28R
DMNS CITY PARK   N/A     59  52  77 SW3       30.28R
AURORA         PTSUNNY   58  54  88 S7        30.30R
FRONT RANGE AP MOSUNNY   59  54  82 SW3       30.29R
ERIE MUNI ARPT MOSUNNY   55  53  94 CALM      30.27R
BOULDER MUN AP MOSUNNY   55  52  88 CALM      30.28R
CENTENNIAL     PTSUNNY   58  51  78 CALM      30.30R
BROOMFIELD     PTSUNNY   59  48  67 CALM      30.29R
FORT COLLINS   MOSUNNY   57  52  82 N5        30.28R
LONGMONT       MOSUNNY   61  52  71 CALM      30.28R
$$

COZ041-046-047-076>085-087-088-011400-
...PIKES PEAK/PALMER DIVIDE AND SOUTHERN FOOTHILLS...

CITY           SKY/WX    TMP DP  RH WIND       PRES   REMARKS
COLO. SPRINGS  PTSUNNY   56  53  90 N5        30.34R
A. F. ACADEMY  PTSUNNY   50  50  99 N7        30.35R
ELLICOTT       PTSUNNY   56  54  93 CALM      30.32R
FALCON         CLOUDY    54  50  87 W5        30.37S
FORT CARSON    CLOUDY    57  52  84 NW2       30.31S
LIMON          SUNNY     50  50 100 N5        30.29R FOG
MONUMENT HILL  MOSUNNY   50  45  81 S6        30.36S
TRINIDAD       CLOUDY    59  55  87 NW6       30.30S
$$

COZ042>045-048>051-090-091-011400-
...NORTHEAST COLORADO...

CITY           SKY/WX    TMP DP  RH WIND       PRES   REMARKS
GREELEY ARPT   NOT AVBL
AKRON          PTSUNNY   62  55  77 W9        30.23R
BURLINGTON     SUNNY     58  53  84 W7        30.21R
WRAY             N/A     61  57  87 W7        30.18S
STERLING       PTSUNNY   59  57  94 CALM      30.19R
HOLYOKE        SUNNY     61  55  82 CALM      30.18R
FORT MORGAN    PTSUNNY   59  55  88 W6        30.23S
$$

COZ086-089-092>099-011400-
...SOUTHEAST COLORADO...

CITY           SKY/WX    TMP DP  RH WIND       PRES   REMARKS
PUEBLO         PTSUNNY   63  60  90 NW3       30.25S
LA JUNTA       SUNNY     61  56  83 N3        30.23R
LAMAR          SUNNY     59  57  93 CALM      30.19R
SPRINGFIELD      N/A     64  58  80 SW6       30.23S
$$



USA.gov is the U.S. government's official web portal to all federal, state and local government web resources and services.